DW3072 Weather Reports


Display with metric or nautical units.
time (UTC)temp
F
wind
direction
speed
MPH
gust
MPH
rain 1hr
in
rain 24hr
in
rain mn
in
humidity
%
barometer
mb
20260503222042 59 115 1.0 5.0 0.00 0.00 0.00 35 1010.0
20260503220534 60 92 3.0 12.0 0.00 0.00 0.00 35 1009.9
20260503215044 59 170 2.0 5.0 0.00 0.00 0.00 33 1009.8
20260503213556 60 260 4.0 9.0 0.00 0.00 0.00 35 1009.8
20260503212046 60 180 2.0 12.0 0.00 0.00 0.00 33 1009.6
20260503210605 60 108 2.0 9.0 0.00 0.00 0.00 32 1009.4
20260503205039 59 168 2.0 8.0 0.00 0.00 0.00 33 1009.4
20260503203536 58 220 4.0 9.0 0.00 0.00 0.00 33 1009.6
20260503202029 58 94 1.0 3.0 0.00 0.00 0.00 33 1009.7
20260503200528 58 304 2.0 8.0 0.00 0.00 0.00 35 1009.9
20260503195042 57 135 4.0 10.0 0.00 0.00 0.00 34 1010.1
20260503193537 57 313 4.0 8.0 0.00 0.00 0.00 32 1010.3
20260503192045 58 63 5.0 9.0 0.00 0.00 0.00 34 1010.5
20260503190544 57 141 4.0 12.0 0.00 0.00 0.00 34 1010.6
20260503185111 57 273 3.0 14.0 0.00 0.00 0.00 36 1010.6
20260503183545 56 253 6.0 14.0 0.00 0.00 0.00 34 1010.9
20260503182032 55 183 3.0 10.0 0.00 0.00 0.00 36 1011.1
20260503180605 55 155 5.0 12.0 0.00 0.00 0.00 36 1011.0
20260503175047 55 87 4.0 9.0 0.00 0.00 0.00 35 1011.2
20260503173551 56 136 4.0 19.0 0.00 0.00 0.00 35 1011.1
20260503172028 55 219 5.0 10.0 0.00 0.00 0.00 35 1011.2
20260503170526 54 167 5.0 13.0 0.00 0.00 0.00 36 1011.5
20260503150536 48 255 4.0 10.0 0.00 0.00 0.00 49 1012.3
20260503130543 49 217 2.0 11.0 0.00 0.00 0.00 53 1012.3
20260503110542 42 109 2.0 4.0 0.00 0.00 0.00 66 1012.0
20260503080604 44 93 3.0 4.0 0.00 0.00 0.00 61 1010.6
20260503072030 45 130 4.0 8.0 0.00 0.02 0.00 59 1010.5
20260503070557 45 70 1.0 3.0 0.00 0.02 0.00 58 1010.4
20260503055035 46 220 2.0 5.0 0.00 0.06 0.00 60 1010.6
20260503053559 46 90 1.0 2.0 0.00 0.06 0.00 60 1010.7
20260503052037 46 43 1.0 3.0 0.00 0.06 0.00 60 1010.8
20260503050536 47 132 0.0 0.0 0.00 0.06 0.00 64 1010.9
20260503045042 47 141 1.0 2.0 0.00 0.06 0.00 64 1010.9
20260503043537 47 75 1.0 2.0 0.00 0.06 0.00 60 1011.1
20260503042047 47 70 0.0 2.0 0.00 0.06 0.00 62 1011.3
20260503040552 48 84 0.0 4.0 0.00 0.06 0.00 57 1011.3
20260503035049 48 41 1.0 4.0 0.00 0.07 0.06 56 1011.1
20260503033551 47 62 2.0 3.0 0.00 0.07 0.06 59 1011.1
20260503032044 47 84 1.0 1.0 0.00 0.07 0.06 62 1011.2
20260503030527 47 84 0.0 1.0 0.00 0.07 0.06 63 1011.2
20260503025100 47 84 0.0 1.0 0.00 0.07 0.06 64 1011.2
20260503023537 48 84 0.0 1.0 0.00 0.07 0.06 65 1011.3
20260503022030 48 84 0.0 0.0 0.00 0.07 0.06 64 1011.3
20260503020528 48 84 0.0 0.0 0.00 0.07 0.06 63 1011.3
20260503015041 49 84 0.0 0.0 0.00 0.07 0.06 63 1011.3
20260503013537 49 84 0.0 0.0 0.00 0.07 0.06 65 1011.3
20260503012035 49 84 0.0 0.0 0.00 0.07 0.06 62 1011.2
20260503010542 50 84 0.0 2.0 0.00 0.07 0.06 55 1011.3
20260503005030 50 84 0.0 0.0 0.00 0.07 0.06 56 1010.9
20260503003640 51 84 0.0 0.0 0.00 0.07 0.06 53 1010.8
20260503002039 52 84 0.0 1.0 0.00 0.07 0.06 51 1010.6
20260503000537 52 58 1.0 4.0 0.00 0.07 0.06 46 1010.5
20260502235032 53 141 2.0 5.0 0.00 0.07 0.06 46 1010.2
20260502233532 53 195 1.0 5.0 0.00 0.07 0.06 43 1010.2
20260502232028 54 115 1.0 4.0 0.00 0.07 0.06 44 1010.2
20260502230558 54 141 2.0 4.0 0.00 0.07 0.06 43 1010.3
20260502225112 55 270 2.0 7.0 0.00 0.07 0.06 44 1010.2
20260502223551 55 100 0.0 4.0 0.00 0.07 0.06 44 1010.0